You are not logged in, Click here to log in
蘇丹阿都阿兹沙機場SZB / WMSA 馬來西亞雪蘭莪州莎亞南西北部,舊名梳邦國際機場
ICAO: WMSA Country: 馬來西亞雪蘭莪州莎亞南西北部,舊名梳邦國際機場
Latitude: 3.13058 Longitude: 101.549
Total Arrivals: 1 Total Departures: 1
Latest Arrival: ZV629 (RCTP-WMSA)Meng Sheng. Chan Latest Departure: FY3503 (WMSA-WSSS)Meng Sheng. Chan
Scenery:
METAR : WMSA 080200Z 20003KT 150V280 9999 FEW017CB 28/24 Q1013

蘇丹阿都阿兹沙機場SZB